• In United Kingdom
  • List of Countries
  • For 7 days
  • Water Temperature
  • Satellite Maps
  • Weather Map
  • Weather Widgets
  • user-avatar
    Login

    Hourly Weather Leoshki

    Today, 19 July, Thursday

    Time Temperature Precipitation Wind Pressure Humidity
    00:00 +20°C° 0 mm 2 mps 741 mmHg 96%
    01:00 +20°C° 0 mm 2 mps 741 mmHg 96%
    02:00 +19°C° 0 mm 2 mps 741 mmHg 96%
    03:00 +19°C° 0 mm 2 mps 741 mmHg 96%
    04:00 +19°C° 0 mm 2 mps 741 mmHg 97%
    05:00 +18°C° 0 mm 2 mps 741 mmHg 97%
    06:00 +20°C° 0 mm 3 mps 741 mmHg 94%
    07:00 +21°C° 0 mm 3 mps 741 mmHg 91%
    08:00 +22°C° 0 mm 3 mps 742 mmHg 86%
    09:00 +25°C° 0.1 mm 3 mps 741 mmHg 80%
    10:00 +26°C° 0.1 mm 4 mps 741 mmHg 73%
    11:00 +27°C° 0.1 mm 4 mps 741 mmHg 67%
    12:00 +28°C° 0 mm 4 mps 741 mmHg 64%
    13:00 +28°C° 0 mm 4 mps 741 mmHg 62%
    14:00 +29°C° 0 mm 4 mps 741 mmHg 60%
    15:00 +28°C° 0.1 mm 5 mps 741 mmHg 61%
    16:00 +28°C° 0.1 mm 5 mps 741 mmHg 63%
    17:00 +28°C° 0.1 mm 5 mps 741 mmHg 65%
    18:00 +26°C° 0.1 mm 4 mps 741 mmHg 71%
    19:00 +25°C° 0.1 mm 4 mps 741 mmHg 76%
    20:00 +22°C° 0.1 mm 3 mps 741 mmHg 82%
    21:00 +21°C° 0 mm 3 mps 741 mmHg 85%
    22:00 +20°C° 0 mm 3 mps 741 mmHg 89%
    23:00 +19°C° 0 mm 3 mps 741 mmHg 92%

    Tomorrow, 20 July, Friday

    Time Temperature Precipitation Wind Pressure Humidity
    00:00 +19°C° 0 mm 3 mps 741 mmHg 94%
    01:00 +19°C° 0 mm 3 mps 741 mmHg 95%
    02:00 +19°C° 0 mm 3 mps 741 mmHg 97%
    03:00 +19°C° 0 mm 3 mps 741 mmHg 97%
    04:00 +19°C° 0 mm 3 mps 741 mmHg 97%
    05:00 +19°C° 0 mm 3 mps 741 mmHg 97%
    06:00 +19°C° 0 mm 3 mps 741 mmHg 95%
    07:00 +20°C° 0 mm 4 mps 742 mmHg 92%
    08:00 +20°C° 0 mm 4 mps 742 mmHg 90%
    09:00 +22°C° 0.1 mm 4 mps 742 mmHg 85%
    10:00 +23°C° 0.1 mm 4 mps 742 mmHg 80%
    11:00 +26°C° 0.1 mm 4 mps 742 mmHg 75%
    12:00 +26°C° 0.6 mm 4 mps 742 mmHg 73%
    13:00 +27°C° 0.6 mm 4 mps 741 mmHg 71%
    14:00 +28°C° 0.6 mm 4 mps 741 mmHg 69%
    15:00 +27°C° 0.4 mm 4 mps 741 mmHg 71%
    16:00 +27°C° 0.4 mm 4 mps 741 mmHg 72%
    17:00 +27°C° 0.4 mm 4 mps 741 mmHg 73%
    18:00 +26°C° 1 mm 4 mps 741 mmHg 78%
    19:00 +25°C° 1 mm 4 mps 742 mmHg 83%
    20:00 +22°C° 1 mm 3 mps 742 mmHg 87%
    21:00 +22°C° 1.3 mm 3 mps 742 mmHg 89%
    22:00 +21°C° 1.3 mm 3 mps 742 mmHg 91%
    23:00 +20°C° 1.3 mm 3 mps 742 mmHg 93%

    Day after tomorrow, 21 July, Saturday

    Time Temperature Precipitation Wind Pressure Humidity
    00:00 +20°C° 0.9 mm 3 mps 742 mmHg 94%
    01:00 +20°C° 0.9 mm 3 mps 742 mmHg 95%
    02:00 +19°C° 0.9 mm 4 mps 743 mmHg 96%
    03:00 +19°C° 0.1 mm 4 mps 743 mmHg 96%
    04:00 +18°C° 0.1 mm 4 mps 743 mmHg 97%
    05:00 +18°C° 0.1 mm 4 mps 743 mmHg 97%
    06:00 +18°C° 0 mm 4 mps 743 mmHg 95%
    07:00 +19°C° 0 mm 4 mps 743 mmHg 93%
    08:00 +19°C° 0 mm 4 mps 743 mmHg 92%
    09:00 +21°C° 0 mm 4 mps 743 mmHg 86%
    10:00 +22°C° 0 mm 4 mps 744 mmHg 80%
    11:00 +25°C° 0 mm 4 mps 744 mmHg 74%
    12:00 +26°C° 0.3 mm 4 mps 744 mmHg 72%
    13:00 +26°C° 0.3 mm 4 mps 743 mmHg 69%
    14:00 +27°C° 0.3 mm 5 mps 743 mmHg 67%
    15:00 +27°C° 0.2 mm 4 mps 743 mmHg 67%
    16:00 +26°C° 0.2 mm 4 mps 743 mmHg 67%
    17:00 +26°C° 0.2 mm 4 mps 743 mmHg 68%
    18:00 +25°C° 0 mm 4 mps 743 mmHg 72%
    19:00 +24°C° 0 mm 3 mps 743 mmHg 77%
    20:00 +22°C° 0 mm 3 mps 743 mmHg 82%
    21:00 +21°C° 0 mm 3 mps 743 mmHg 84%
    22:00 +20°C° 0 mm 3 mps 744 mmHg 87%
    23:00 +19°C° 0 mm 3 mps 744 mmHg 90%

    22 July, Sunday

    Time Temperature Precipitation Wind Pressure Humidity
    00:00 +18°C° 0 mm 3 mps 744 mmHg 91%
    01:00 +18°C° 0 mm 2 mps 744 mmHg 93%
    02:00 +18°C° 0 mm 2 mps 744 mmHg 94%
    03:00 +17°C° 0 mm 2 mps 744 mmHg 95%
    04:00 +17°C° 0 mm 2 mps 744 mmHg 95%
    05:00 +17°C° 0 mm 2 mps 744 mmHg 96%
    06:00 +18°C° 0 mm 3 mps 744 mmHg 92%
    07:00 +19°C° 0 mm 3 mps 744 mmHg 87%
    08:00 +21°C° 0 mm 3 mps 744 mmHg 83%
    09:00 +22°C° 0.1 mm 3 mps 744 mmHg 78%
    10:00 +24°C° 0.1 mm 3 mps 744 mmHg 72%
    11:00 +26°C° 0.1 mm 3 mps 744 mmHg 67%
    12:00 +26°C° 0.3 mm 3 mps 743 mmHg 66%
    13:00 +26°C° 0.3 mm 3 mps 743 mmHg 64%
    14:00 +27°C° 0.3 mm 3 mps 743 mmHg 63%
    15:00 +27°C° 0.1 mm 3 mps 743 mmHg 63%
    16:00 +27°C° 0.1 mm 3 mps 743 mmHg 62%
    17:00 +27°C° 0.1 mm 3 mps 743 mmHg 62%
    18:00 +26°C° 0 mm 3 mps 743 mmHg 67%
    19:00 +24°C° 0 mm 2 mps 743 mmHg 72%
    20:00 +23°C° 0 mm 2 mps 743 mmHg 78%
    21:00 +21°C° 0 mm 2 mps 743 mmHg 81%
    22:00 +20°C° 0 mm 2 mps 743 mmHg 84%
    23:00 +19°C° 0 mm 2 mps 743 mmHg 87%

    23 July, Monday

    Time Temperature Precipitation Wind Pressure Humidity
    00:00 +18°C° 0 mm 2 mps 743 mmHg 89%
    01:00 +18°C° 0 mm 2 mps 743 mmHg 91%
    02:00 +17°C° 0 mm 2 mps 743 mmHg 93%
    03:00 +17°C° 0 mm 2 mps 743 mmHg 94%
    04:00 +17°C° 0 mm 2 mps 743 mmHg 94%
    05:00 +17°C° 0 mm 2 mps 743 mmHg 95%
    06:00 +18°C° 0 mm 2 mps 744 mmHg 90%
    07:00 +20°C° 0 mm 3 mps 744 mmHg 85%
    08:00 +21°C° 0 mm 3 mps 744 mmHg 79%
    09:00 +24°C° 0 mm 3 mps 744 mmHg 73%
    10:00 +25°C° 0 mm 3 mps 744 mmHg 67%
    11:00 +26°C° 0 mm 4 mps 744 mmHg 60%
    12:00 +27°C° 0 mm 4 mps 744 mmHg 58%
    13:00 +27°C° 0 mm 4 mps 744 mmHg 56%
    14:00 +28°C° 0 mm 4 mps 744 mmHg 54%
    15:00 +28°C° 0 mm 4 mps 744 mmHg 56%
    16:00 +28°C° 0 mm 4 mps 744 mmHg 57%
    17:00 +27°C° 0 mm 4 mps 744 mmHg 59%
    18:00 +26°C° 0 mm 3 mps 744 mmHg 65%
    19:00 +24°C° 0 mm 3 mps 744 mmHg 71%
    20:00 +23°C° 0 mm 2 mps 744 mmHg 76%
    21:00 +21°C° 0 mm 2 mps 745 mmHg 79%
    22:00 +20°C° 0 mm 2 mps 745 mmHg 82%
    23:00 +18°C° 0 mm 2 mps 745 mmHg 85%

    24 July, Tuesday

    Time Temperature Precipitation Wind Pressure Humidity
    00:00 +18°C° 0 mm 2 mps 745 mmHg 87%
    01:00 +17°C° 0 mm 2 mps 745 mmHg 90%
    02:00 +17°C° 0 mm 3 mps 745 mmHg 92%
    03:00 +16°C° 0 mm 3 mps 745 mmHg 93%
    04:00 +16°C° 0 mm 2 mps 746 mmHg 94%
    05:00 +16°C° 0 mm 2 mps 746 mmHg 95%
    06:00 +17°C° 0 mm 2 mps 746 mmHg 90%
    07:00 +18°C° 0 mm 3 mps 746 mmHg 84%
    08:00 +20°C° 0 mm 3 mps 747 mmHg 79%
    09:00 +21°C° 0 mm 3 mps 747 mmHg 73%
    10:00 +22°C° 0 mm 3 mps 746 mmHg 68%
    11:00 +25°C° 0 mm 3 mps 746 mmHg 62%
    12:00 +25°C° 0 mm 3 mps 746 mmHg 60%
    13:00 +26°C° 0 mm 3 mps 746 mmHg 57%
    14:00 +27°C° 0 mm 3 mps 746 mmHg 55%
    15:00 +27°C° 0 mm 3 mps 746 mmHg 55%
    16:00 +27°C° 0 mm 3 mps 746 mmHg 56%
    17:00 +27°C° 0 mm 2 mps 746 mmHg 57%
    18:00 +25°C° 0 mm 2 mps 746 mmHg 63%
    19:00 +24°C° 0 mm 2 mps 746 mmHg 69%
    20:00 +22°C° 0 mm 1 mps 746 mmHg 74%
    21:00 +21°C° 0 mm 1 mps 746 mmHg 78%
    22:00 +20°C° 0 mm 1 mps 746 mmHg 81%
    23:00 +19°C° 0 mm 1 mps 747 mmHg 84%
    Show more